Location: Sternwarte ZA, Rosenfeld-Brittheim
(48.2889°N, 8.6789°E)
Time: 19:41:07
(UTC+01:00)

ISS - Pass Details

Date: 11 December 2017
Orbit: 402 x 407 km, 51.6° (Epoch: 11 December)

Event Time Altitude Azimuth Distance (km) Brightness Sun altitude
Rises 18:09:27 0° 291° (WNW) 2,332 0.9 -15.5°
Reaches altitude 10° 18:11:33 10° 293° (WNW) 1,469 -0.3 -15.8°
Maximum altitude 18:14:51 78° 20° (NNE) 420 -3.9 -16.4°
Enters shadow 18:15:48 43° 98° (E) 583 -3.5 -16.5°
